Zurück zum Katalog

CONNECTA IOT-14

AktivKommunikationSSO
NORAD 67401·PAYLOAD·🇹🇷 Turkey

Gestartet Jan 11, 2026 von Vandenberg Space Force Base

Loading…

Nächste Überflüge (nächste 24 Stunden)

TLE

AktuellSource: Space-Track

Epoche: Sep 14, 2026, 05:08 UTC

1 67401U 26004AQ  26257.21450869  .00006556  00000-0  31404-3 0  9994
2 67401  97.4567 255.0254 0010541  40.2062 319.9950 15.19224615 37277

Verfolge CONNECTA IOT-14 in Echtzeit mit AllMySat

Download on the App Store